Regional Weather Roundup
Issued by NWS

Home | Current Version | Previous Version | Text Only | Print | Product List | Glossary Off
Versions: 1 2 3 4 5 6 7 8 9 10 11 12 13 14 15 16 17 18 19 20 21 22 23 24 25 26 27 28 29 30 31 32 33 34 35 36 37 38 39 40 41 42 43 44 45 46 47 48 49 50

551
ASUS43 KIND 300359
RWRIN

WEATHER ROUNDUP FOR INDIANA
NATIONAL WEATHER SERVICE INDIANAPOLIS IN
1200 AM EDT TUE AUG 30 2016

NOTE: "FAIR" INDICATES FEW OR NO CLOUDS BELOW 12,000 FEET WITH NO
SIGNIFICANT WEATHER AND/OR OBSTRUCTIONS TO VISIBILITY.

* - STATION DOES NOT REPORT WEATHER SUCH AS PRECIPITATION OR FOG.

+ - STATION NOT QUALITY CONTROLLED BY THE NATIONAL WEATHER SERVICE.
    USE DATA WITH CAUTION...ESPECIALLY DEWPOINT AND RELATIVE
    HUMIDITY OBSERVATIONS.

INZ001>003-010>013-019-020-300500-
NORTHWEST INDIANA

CITY           SKY/WX    TMP DP  RH WIND       PRES   REMARKS
KNOX *+        CLEAR     72  55  56 CALM      30.18R
MONTICELLO +   CLEAR     75  68  78 CALM      30.17R
RENSSELAER +   CLEAR     72  72 100 CALM      30.18R

$$

LMZ046-743>745-300500-
SOUTHERN LAKE MICHIGAN

STATION/POSITION TIME  TEMP    WIND        PRES    WAVE
                       AIR SEA DIR/SP/G            HT
                 (UTC) (F)     (DEG/KT/KT) (MB)    (FT)
BURNS HARBOR     0302   74      70/  8/ 10 1021.7F
MICHIGAN CITY    0300   74      60/  4/  5   N/A
5NW MICH CITY    0300   75 76   90/  6/  6   N/A     1

$$

INZ004-005-014>016-021>024-300500-
NORTH CENTRAL INDIANA

CITY           SKY/WX    TMP DP  RH WIND       PRES   REMARKS
GOSHEN         PTCLDY    74  68  81 SE5       30.19S
SOUTH BEND     CLEAR     72  70  93 CALM      30.19R

$$

INZ006>009-017-018-025>027-300500-
NORTHEAST INDIANA

CITY           SKY/WX    TMP DP  RH WIND       PRES   REMARKS
ANGOLA *+      CLEAR     72  64  78 SE6       30.21R
FORT WAYNE     CLOUDY    72  67  84 E5        30.20S

$$

INZ028-029-035-036-043>045-051>053-300500-
WEST CENTRAL INDIANA

CITY           SKY/WX    TMP DP  RH WIND       PRES   REMARKS
CRAWFORDSVL +  CLEAR     70  70 100 E3        30.18R
GREENCASTLE +  CLEAR     72  72 100 CALM      30.18S
LAFAYETTE      CLEAR     75  73  93 CALM      30.16S
TERRE HAUTE    CLEAR     73  70  90 CALM      30.16R

$$

INZ030>032-037>040-046>048-054>057-064-065-300500-
CENTRAL INDIANA

CITY           SKY/WX    TMP DP  RH WIND       PRES   REMARKS
INDIANAPOLIS   CLEAR     79  70  74 E6        30.17R
-EAGLE CREEK   CLEAR     77  70  79 CALM      30.17R
KOKOMO *+      CLEAR     72  70  94 CALM      30.18S
MT COMFORT *+  CLEAR     72  70  94 CALM      30.19R
SHELBYVILLE    CLEAR     74  69  85 E3        30.17R

$$

INZ033-034-041-042-049-050-058-059-300500-
EAST CENTRAL INDIANA

CITY           SKY/WX    TMP DP  RH WIND       PRES   REMARKS
MUNCIE         CLEAR     72  70  93 CALM      30.19S

$$

INZ060-061-067>069-081>083-085>088-300500-
SOUTHWEST INDIANA

CITY           SKY/WX    TMP DP  RH WIND       PRES   REMARKS
EVANSVILLE     CLEAR     78  70  76 NE3       30.14S
HUNTINGBURG *+ CLEAR     73  70  88 CALM      30.15S

$$

INZ062-063-066-070>080-084-089>092-300500-
SOUTH CENTRAL AND SOUTHEAST INDIANA

CITY           SKY/WX    TMP DP  RH WIND       PRES   REMARKS
BLOOMINGTON    CLEAR     73  70  90 CALM      30.17S
MADISON *+     CLEAR     72  70  94 CALM      30.19S

$$





USA.gov is the U.S. government's official web portal to all federal, state and local government web resources and services.